Location: Stanford
(52.2833°N, 2.4333°W)
Time: 02:12:22
(UTC+00:00)

Cosmos 923 Rocket - Pass Details

Date: 22 January 2021
Orbit: 758 x 785 km, 74.0° (Epoch: 28 February)

Event Time Altitude Azimuth Distance (km) Brightness Sun altitude
Rises 18:37:16 0° 333° (NNW) 3,290 7.5 -17.7°
Reaches altitude 10° 18:39:40 10° 331° (NNW) 2,356 6.8 -18.0°
Maximum altitude 18:45:00 70° 249° (WSW) 837 4.3 -18.8°
Drops below altitude 10° 18:50:16 10° 167° (SSE) 2,328 6.4 -19.6°
Sets 18:52:38 0° 165° (SSE) 3,248 7.2 -20.0°
